www.pogodaiklimat.ru

Погода и климат >> Архив погоды >> Украина >> Яготин


ПОГОДА в Яготине

  • Прогноз погоды в Яготине
  • Монитор погоды в Яготине

АРХИВ ПОГОДЫ в Яготине

Время (UTC), дата Ветер
(напр.,м/с)
 
Видим.   Явления Облачность Т
(С)
Тd
(С)
f
(%)
Тe
(С)
Тes
(С)
Комфортность P
(гПа)
Po
(гПа)
Тmin
(С)
Tmax
(С)
R
(мм)
R24
(мм)
S
(см)
21 10.06 СВ 2 17 км 5/0
[Ci fib]
+20.7 +16.1 75 +25 +25 комфорт 1019.0 1004.0
00 11.06 СВ 1 15 км ясно +19.0 +15.7 81 +21 +21 комфорт 1019.0 1003.9
03 11.06 СВ 1 12 км ясно +19.6 +15.9 79 +23 +24 комфорт 1019.0 1004.0
06 11.06 СВ 3 25 км ясно +24.0 +19.3 75 +29 +36 душно 1019.0 1004.2 +18.4
09 11.06 СВ 2 20 км ясно +28.2 +23.3 75 +38 +55 опасность
солнечного
удара
1019.0 1004.4
12 11.06 В 4 20 км 4/4 600 м
[Cu med, cong]
+30.1 +24.0 70 +42 +48 опасность
перегрева
1017.0 1002.6
15 11.06 СВ 2 20 км 6/6 750 м
[Cb cap]
+30.1 +24.2 71 +42 +44 опасность
перегрева
1017.0 1002.6
18 11.06 СВ 3 25 км 9/3 600 м
[Sc Ci sp]
+26.0 +16.0 54 +29 +29 душно 1017.0 1002.3 +31.0
21 11.06 СВ 2 19 км ясно +22.7 +17.4 72 +28 +28 душно 1018.0 1003.1
00 12.06 СВ 2 15 км ясно +20.7 +17.3 81 +25 +25 комфорт 1017.0 1002.1
03 12.06 СВ 2 13 км ясно +20.5 +16.3 77 +24 +25 комфорт 1017.0 1002.0
06 12.06 СВ 1 20 км ясно +25.7 +17.6 61 +30 +40 душно 1017.0 1002.3 +18.9
09 12.06 В 3 20 км 3/3 600 м
[Cu hum]
+29.9 +15.6 42 +33 +43 душно 1016.0 1001.5
12 12.06 СВ 2 20 км 4/4 600 м
[Cu med, cong]
+30.7 +13.0 34 +32 +42 жарко 1015.0 1000.6
15 12.06 СВ 2 20 км 3/0
[Ac und]
+30.5 +13.3 35 +32 +35 жарко 1014.0 999.6
18 12.06 СВ 1 23 км 1/0
[Ac und]
+27.0 +17.5 56 +31 +31 душно 1015.0 1000.4 +31.2
21 12.06 СВ 2 17 км ясно +23.0 +18.1 74 +29 +29 очень
душно
1016.0 1001.2
00 13.06 СВ 2 15 км ясно +21.1 +17.4 79 +25 +25 комфорт 1015.8 1001.0
03 13.06 СВ 2 19 км 9/3 600 м
[Cu hum Ac und Ci fib]
+21.0 +16.0 73 +25 +25 комфорт 1016.0 1001.1
06 13.06 СВ 2 20 км 4/1 600 м
[Cu med, cong Ci fib]
+26.9 +19.8 65 +33 +39 очень
душно
1017.0 1002.4 +21.0
09 13.06 СВ 2 25 км 8/0
[Cc]
+29.7 +16.8 46 +33 +33 душно 1017.0 1002.5
12 13.06 СВ 3 28 км 9/5 600 м
[Cb cap Cs]
+30.1 +16.5 44 +33 +33 душно 1017.0 1002.5
15 13.06 В 2 25 км 9/3 600 м
[Cu med, cong Cs]
+29.1 +19.7 57 +35 +35 очень
душно
1017.0 1002.5
18 13.06 СВ 1 18 км 9/0
[Ci fib]
+26.3 +19.7 67 +32 +32 очень
душно
1018.0 1003.3 +31.2
21 13.06 СВ 2 15 км ясно +22.1 +17.0 73 +27 +27 душно 1019.0 1004.1
00 14.06 СВ 2 14 км 4/0
[Ci fib]
+20.5 +17.3 82 +25 +25 комфорт 1019.0 1004.0
03 14.06 СВ 2 13 км 9/0
[Ci fib]
+19.6 +17.0 85 +22 +22 комфорт 1020.0 1005.0
06 14.06 ЮВ 2 21 км 9/0
[Ci sp]
+24.1 +16.9 64 +28 +28 душно 1020.0 1005.2 +17.7
09 14.06 ЮВ 2 20 км ясно +27.9 +14.9 45 +30 +48 жарко 1020.0 1005.4
12 14.06 ЮВ 2 20 км 3/3 600 м
[Cu med, cong]
+28.7 +14.5 42 +31 +41 жарко 1019.0 1004.4
15 14.06 Ю 2 20 км 3/3 600 м
[Cu med, cong]
+30.1 +19.8 54 +36 +39 очень
душно
1018.0 1003.5
18 14.06 Ю 1 25 км 9/3 600 м
[Sc diur, vesp Ci fib]
+24.5 +18.7 70 +29 +29 душно 1017.0 1002.3 +30.5
21 14.06 штиль 0 20 км 8/0
[Ci fib]
+21.3 +19.4 89 +26 +26 душно 1018.0 1003.1
00 15.06 штиль 0 9000 м дымка 3/0
[Ci fib]
+19.4 +17.7 90 +21 +21 комфорт 1017.0 1002.0
03 15.06 З 2 7000 м дымка 3/0
[Ci fib]
+20.7 +18.1 85 +25 +26 комфорт 1016.0 1001.1
06 15.06 СЗ 1 15 км 4/0
[Ac und Ci fib]
+25.0 +18.7 68 +30 +37 душно 1016.0 1001.3 +18.4
09 15.06 СЗ 2 25 км 3/1 600 м
[Cu med, cong Ci fib]
+28.9 +18.0 52 +34 +46 очень
душно
1015.0 1000.5
12 15.06 СЗ 2 28 км 3/3 600 м
[Cu hum]
+31.9 +14.5 35 +34 +44 душно 1014.0 999.6
15 15.06 ЮЗ 1 24 км 1/1 600 м
[Cu hum]
+31.3 +14.8 37 +33 +38 жарко 1013.0 998.6
18 15.06 штиль 0 22 км ясно +26.1 +16.9 57 +30 +30 душно 1013.0 998.4 +32.7
21 15.06 штиль 0 14 км ясно +19.6 +17.7 89 +22 +22 комфорт 1014.0 999.1
00 16.06 штиль 0 10 км ясно +17.4 +16.1 92 +17 +17 1014.0 998.9
03 16.06 С 1 13 км 8/8 800 м
[Sc]
+19.0 +15.7 81 +21 +21 комфорт 1013.0 998.0
06 16.06 С 2 17 км 9/9 840 м
[Sc]
+22.7 +16.2 67 +27 +27 душно 1014.0 999.2 +16.9
09 16.06 СВ 3 20 км 9/0
[Ci sp]
+26.8 +16.1 52 +30 +30 душно 1014.0 999.4
12 16.06 СЗ 5 20 км 9/0
[Ci sp]
+28.3 +14.9 44 +31 +31 душно 1014.0 999.5
15 16.06 СЗ 3 20 км 9/0
[Ci sp]
+28.3 +14.5 43 +31 +31 душно 1013.0 998.5
18 16.06 СВ 2 23 км 8/0
[Ac und Ci]
+24.3 +15.5 58 +27 +27 жарко 1013.0 998.3 +29.0
21 16.06 СВ 1 17 км ясно +18.1 +14.4 79 +19 +19 1015.0 999.9
00 17.06 СВ 1 15 км 3/0
[Ac und]
+15.3 +13.3 88 +16 +16 1015.0 999.8
03 17.06 ЮВ 1 17 км 8/6 600 м
[Sc Ac und]
+15.5 +12.6 83 +16 +16 1016.0 1000.8
06 17.06 Ю 2 20 км 9/6 720 м
[Sc Ac trans]
+21.1 +16.7 76 +25 +25 комфорт 1016.0 1001.1 +14.4
09 17.06 З 2 25 км 8/4 600 м
[Cu hum Ac trans Cc]
+27.1 +15.8 50 +30 +30 душно 1016.0 1001.4
12 17.06 ЮВ 2 28 км 3/3 600 м
[Cu Sc]
+28.3 +14.9 44 +31 +41 душно 1015.0 1000.4
15 17.06 ЮВ 1 25 км 8/0
[Cs]
+28.3 +15.2 45 +31 +31 душно 1015.0 1000.4

 

Местоположение метеостанции Яготин (Киевская область, Украина): широта 50.22 долгота 31.80 высота над уровнем моря 128 м.

В архиве по умолчанию представлена погода в Яготине за последнюю неделю. Архивные данные за месяц целиком и за предыдущие месяцы, начиная с января 2011 года, Вы можете получить, выбрав интересующий диапазон дат из раскрывающегося списка и нажав кнопку "Ввод!".


*Определитесь, кто Вы:
робот инопланетянин человек

Внимание! Время в таблицах - всемирное. Для получения местного времени необходимо прибавить поправку, которая равна 2 ч.

Смотрите также архив погоды в соседних городах и на ближайших метеорологических станциях:

Погода в Барышевке (Киевская область, Украина) (37 км)
Погода в Прилуках (Черниговская область, Украина) (57 км)
Погода в Каневе (Черкасская область, Украина) (58 км)
Погода в Борисполе (Киевская область, Украина) (60 км)
Погода в Золотоноше (Черкасская область, Украина) (62 км)
Погода в Мироновке (Киевская область, Украина) (84 км)
Погода в Киеве (город Киев, Украина) (90 км)
Погода в Лубнах (Полтавская область, Украина) (90 км)
Погода в Черкассах (Черкасская область, Украина) (91 км)
Погода в Нежине (Черниговская область, Украина) (93 км)

Пояснения к столбцам:

Ветер - указаны скорость ветра в м/с - средняя за 10 мин, порывы в срок и между сроками (в фигурных скобках) и направление, откуда дует ветер: С - северный, СВ - северо-восточный, В - восточный, ЮВ - юго-восточный, Ю - южный, ЮЗ - юго-западный, З - западный, СЗ - северо-западный.
Видимость - горизонтальная дальность видимости в метрах или километрах. При видимости от 1 до 10 км при отсутствии осадков обычно наблюдается дымка, при ухудшении видимости до 1 км и менее - туман. В сухую погоду видимость может ухудшаться дымом, пылью или мглою.
Явления - указаны атмосферные явления, наблюдавшиеся в срок или в последний час перед сроком; фигурными скобками обозначены явления, наблюдавшиеся между сроками (за 1-3 часа до срока); квадратными скобками обозначены град или гололедные отложения с указанием их диаметра в мм.
Облачность - указаны через наклонную черту общая и нижняя облачность в баллах и высота нижней границы облаков в метрах; квадратными скобками обозначены формы облаков: Ci - перистые, Cs - перисто-слоистые, Cc - перисто-кучевые, Ac - высококучевые, As - высокослоистые, Sc - слоисто-кучевые, Ns - слоисто-дождевые, Cu - кучевые, Cb - кучево-дождевые. Подробнее классификацию облаков см. в Атласе облаков (PDF).
T - Температура воздуха - температура, измеренная на высоте 2 м над землей.
Td - Температура точки росы - температура, при понижении до которой содержащийся в воздухе водяной пар достигнет насыщения.
f - Относительная влажность воздуха - влажноcть воздуха, измеренная на высоте 2 м над землей.
Te - Эффективная температура - температура, которую ощущает одетый по сезону человек в тени. Характеристика душности погоды. При расчете учитывается влияние влажности воздуха и скорости ветра на теплоощущения человека.
Tes - Эффективная температура на солнце - температура, которую ощущает человек, с поправкой на солнечный нагрев. Характеристика знойности погоды. Зависит от высоты солнца над горизонтом, облачности и скорости ветра. Ночью, в пасмурную погоду, а также при ветре 12 м/с и более поправка равна нулю.
P - Атмосферное давление - приведенное к уровню моря атмосферное давление.
Po - Атмосферное давление - измеренное на уровне метеостанции атмосферное давление.
Tmin - Минимальная температура - минимум температуры воздуха на высоте 2 м над землей.
Tmax - Максимальная температура - максимум температуры воздуха на высоте 2 м над землей.
R - Количество осадков - Количество выпавших осадков за период времени, мм. При наведении курсора мыши на число - период времени, за который выпало указанное количество осадков.
R24 - Количество осадков - Количество выпавших осадков за 24 часа, мм.
S - Снежный покров - Высота снежного покрова, см. При наведении курсора мыши на число - состояние снежного покрова и степень покрытия местности в баллах.